Showing default

TIANHUI 2-01B, 44209

Orbit data source: Space-Track

TIANHUI 2-01B, 44209 is a payload satellite owned by G. Cehui dili (CN) in SSO that was launched on Mon, 29 Apr 2019 UTC via a CHANG ZHENG 4B launch vehicle from the Taiyaun Space Center, China (TSC). Payload-class satellites include a variety of spacecraft equipped with specific instruments for various scientific and technological missions. These include communications satellites like Starlink; space stations such as the ISS; scientific satellites like the Hubble; Earth observation satellites from companies like Planet Labs, Umbra, and HawkEye 360; GPS; miniature CubeSats for education and research; and military/defense satellites.

Loading next visibility...
Identifier
44209, 2019-024C
Orbit
SSO
Country
Flag of CNCN / PRC
Related business
Manufacturer
SAST
Mission
Operational Civil Radar Imaging
Bus & Motor
CAST-2000?, Unknown motor
Mass
~1,000 kg wet, ~1,000 kg dry
Launch date (UTC)
2019-04-29 (6 years ago)
Launch vehicle
CHANG ZHENG 4B
Launch site
Taiyaun Space Center, China (TSC)
Object type
Payload
Rocket body
Debris
Shape & HBR
Box + 2 Pan, Unknown HBR
Radar Cross Section
2.045 m², Large (>1 m²)

Expand to show TLE details & history
Last TLE update: 2 days ago

TLE from 2 days ago
0 TIANHUI 2-01B
1 44209U 19024C   25258.78056417  .00002005  00000-0  10564-3 0  9991
2 44209  97.4790 261.4221 0001606  82.2477 277.8938 15.16739432353116
Epoch: 2025-09-15T18:44Z
TLE epoch observation values (Epoch: 2025-09-15T18:44:00.744Z)
Latitude
-0.00006°
Longitude
-14.5613°
Altitude
518.635 km
Speed
7.604 km/s
True Right ascension
17h 25m 41s
True Declination
0° 00' 00"
Sunlit
Object was in daylight at epoch
Visualization orbit readout
Latitude
Unknown
Longitude
Unknown
Altitude
Unknown
Speed
Unknown
Apparent Right ascension
Unknown
Apparent Declination
Unknown
Sunlit
N/A
Visualization observer readout
Local Sidereal Time
07:14:56
Azimuth
Unknown
Elevation
Unknown
Doppler factor
Unknown
Orbital elements
Apogee altitude
513.783 km
Perigee altitude
511.569 km
Semi-major axis
6,890.813 km
Eccentricity
0.00016
Inclination
97.479°
RAAN
261.4221°
Arg. of periapsis
82.2477°
True anomaly
277.87557°
Mean anomaly
277.8938°
Eccentric anomaly
277.88469°
Mean motion
3.79435 °/min
Orbital period
94.88 mins
BSTAR
0.00010564
Loading maneuver chart data...
Computing Atmospheric mass density...
Loading historical data...
Loading historical data...
Loading historical data...
Loading historical data...
Loading historical data...
Loading historical data...
Loading historical data...

Documentation

Showing up to 5 results
|